This is the latest recevied weather packets stored in our database for station/object EA1EXV-11. If no packets are shown the sender has not sent any weather packets the latest 10 day(s).
| Time | Temp. | Humidity | Pressure | Rain* | Wind** | Luminosity | Snow |
|---|---|---|---|---|---|---|---|
| 1777764919 | 12.22° C | 84% | 1015.6 hPa | - | - | - | - |
| 1777764019 | 12.22° C | 83% | 1015.7 hPa | - | - | - | - |
| 1777763119 | 12.22° C | 83% | 1015.6 hPa | - | - | - | - |
| 1777762219 | 12.78° C | 83% | 1015.8 hPa | - | - | - | - |
| 1777761319 | 12.78° C | 83% | 1015.8 hPa | - | - | - | - |
| 1777760419 | 12.78° C | 82% | 1015.7 hPa | - | - | - | - |
| 1777759519 | 12.22° C | 82% | 1015.8 hPa | - | - | - | - |
| 1777758619 | 12.78° C | 82% | 1015.8 hPa | - | - | - | - |
| 1777757719 | 12.78° C | 82% | 1015.9 hPa | - | - | - | - |
| 1777756819 | 12.78° C | 81% | 1016 hPa | - | - | - | - |
| 1777755918 | 12.78° C | 81% | 1016 hPa | - | - | - | - |
| 1777755021 | 12.78° C | 80% | 1015.8 hPa | - | - | - | - |
| 1777754121 | 12.78° C | 80% | 1015.9 hPa | - | - | - | - |
| 1777753218 | 12.78° C | 79% | 1015.7 hPa | - | - | - | - |
| 1777752318 | 12.78° C | 79% | 1015.5 hPa | - | - | - | - |
| 1777751418 | 13.33° C | 78% | 1015.6 hPa | - | - | - | - |
| 1777750518 | 13.33° C | 78% | 1015.4 hPa | - | - | - | - |
| 1777749618 | 13.89° C | 77% | 1015.5 hPa | - | - | - | - |
| 1777748718 | 13.89° C | 77% | 1015.4 hPa | - | - | - | - |
| 1777747818 | 14.44° C | 76% | 1015.4 hPa | - | - | - | - |
| 1777746917 | 14.44° C | 76% | 1015.5 hPa | - | - | - | - |
| 1777746017 | 14.44° C | 75% | 1015.5 hPa | - | - | - | - |
| 1777745117 | 14.44° C | 74% | 1015.4 hPa | - | - | - | - |
| 1777744217 | 14.44° C | 74% | 1015.5 hPa | - | - | - | - |
| 1777743317 | 14.44° C | 73% | 1015.7 hPa | - | - | - | - |
* Rain since midnight (hover to see other rain measurements)
** Current wind speed in m/s (hover to see current wind gust speed)